Temp
-6 -6 -6 -6 -7 -7 -7 -5 -5 -6 -5 -5 -5 -5 -5 -5 -5 -4 -4 -4 -4 -4 -4 -4 -4 -3 -4 -4 -4 -4 -4 -4 -4 -4 -4 -4 -4 -4 -4 -4 -5 -5 -4
-5 -6 -6 -7 -6 -7 -7 -6 -5 -6 -6 -6 -6 -6 -5 -5 -5 -5 -5 -5 -5 -5 -4 -4 -4 -3 -4 -3 -4 -3 -4 -4 -4 -4 -4 -4 -4 -4 -5 -4 -5 -4 -4
-4 -6 -6 -4 -5 -7 -7 -5 -7 -6 -6 -7 -6 -6 -5 -5 -5 -5 -4 -4 -4 -4 -4 -4 -4 -4 -3 -4 -4 -4 -4 -4 -4 -4 -4 -4 -4 -5 -5 -5 -5 -5 -5
-6 -6 -6 -5 -6 -6 -6 -5 -5 -6 -6 -6 -5 -5 -5 -5 -5 -4 -4 -4 -4 -3 -4 -4 -3 -3 -3 -4 -4 -4 -4 -4 -4 -4 -4 -4 -5 -5 -5 -5 -5 -5 -5
-6 -6 -6 -5 -6 -5 -6 -6 -5 -5 -5 -5 -5 -5 -5 -4 -4 -4 -3 -3 -3 -4 -3 -3 -3 -3 -3 -4 -4 -4 -4 -4 -4 -4 -5 -4 -5 -5 -5 -5 -5 -5 -5
-6 -5 -6 -6 -5 -5 -5 -6 -5 -6 -5 -5 -5 -5 -5 -4 -4 -4 -4 -4 -3 -3 -3 -3 -3 -3 -3 -4 -4 -4 -4 -4 -4 -4 -4 -4 -4 -5 -5 -5 -5 -5 -5
-5 -5 -5 -5 -6 -5 -5 -5 -5 -5 -5 -4 -4 -4 -4 -4 -4 -4 -3 -3 -3 -3 -3 -4 -3 -4 -4 -4 -4 -4 -4 -4 -4 -4 -4 -5 -5 -5 -5 -4 -4 -5 -5
-4 -4 -4 -5 -4 -5 -5 -4 -4 -4 -4 -4 -4 -4 -4 -4 -4 -4 -3 -4 -4 -4 -4 -4 -3 -4 -4 -4 -3 -4 -4 -4 -4 -4 -5 -5 -5 -5 -5 -5 -4 -4 -4
-4 -4 -4 -4 -4 -4 -4 -4 -4 -4 -4 -4 -4 -4 -4 -4 -4 -4 -4 -4 -4 -4 -4 -4 -3 -4 -4 -3 -3 -4 -5 -4 -5 -4 -4 -4 -4 -4 -4 -4 -4 -4 -5
-4 -4 -4 -5 -5 -4 -4 -4 -4 -5 -4 -4 -4 -5 -4 -4 -4 -4 -5 -4 -4 -4 -4 -4 -4 -4 -4 -4 -4 -4 -4 -4 -4 -4 -4 -4 -4 -4 -4 -4 -4 -4 -4
-4 -4 -4 -4 -4 -4 -4 -3 -4 -4 -4 -4 -4 -4 -4 -4 -4 -4 -4 -4 -4 -6 -6 -4 -4 -4 -4 -4 -4 -4 -4 -4 -4 -3 -3 -4 -4 -4 -5 -4 -3 -4 -5
-4 -4 -4 -4 -4 -4 -4 -4 -4 -4 -4 -4 -4 -4 -4 -4 -4 -4 -4 -4 -4 -5 -5 -4 -4 -4 -4 -4 -4 -4 -4 -4 -4 -4 -4 -4 -5 -5 -5 -4 -4 -4 -5
-4 -4 -4 -4 -4 -4 -4 -4 -6 -5 -4 -4 -4 -4 -5 -5 -4 -4 -3 -4 -4 -4 -4 -4 -4 -4 -4 -4 -4 -4 -4 -5 -5 -4 -3 -4 -4 -5 -5 -5 -5 -5 -5
-4 -4 -3 -4 -4 -4 -5 -4 -4 -4 -4 -5 -5 -5 -5 -4 -4 -3 -3 -3 -3 -4 -5 -5 -5 -5 -5 -5 -5 -5 -4 -4 -5 -5 -5 -5 -4 -5 -5 -5 -5 -5 -5
-4 -4 -4 -4 -5 -5 -4 -4 -3 -3 -3 -3 -3 -3 -3 -3 -3 -2 -2 -2 -3 -3 -4 -5 -5 -5 -5 -4 -5 -5 -4 -3 -3 -5 -5 -5 -5 -5 -4 -5 -5 -6 -6
-4 -4 -5 -4 -4 -5 -4 -4 -3 -3 -3 -2 -2 -2 -2 -2 -2 -2 -2 -2 -2 -2 -3 -3 -2 -2 -2 -2 -3 -2 -2 -2 -2 -2 -3 -3 -3 -5 -4 -6 -6 -5 -5
-3 -3 -4 -4 -5 -5 -5 -5 -4 -3 -2 -2 -2 -2 -2 -1 -1 -1 -1 -1 -1 -1 -2 -2 -2 -2 -2 -2 -1 -1 -1 -2 -2 -2 -2 -2 -2 -3 -5 -5 -6 -4 -4
-4 -5 -5 -5 -5 -5 -4 -5 -5 -4 -3 -1 -2 -1 -1 -1 -1 -1 -1 -1 -1 -1 -1 -1 -1 -1 -1 -1 -1 -1 -1 -1 -1 -1 -2 -2 -2 -3 -4 -4 -6 -4 -4
-5 -5 -4 -5 -5 -5 -5 -5 -5 -3 -2 -2 -1 -1 -1 -1 -0 -0 -0 -0 -0 -0 -0 -0 -1 -1 -1 -1 -1 -1 -1 -1 -1 -1 -1 -2 -2 -2 -3 -4 -5 -5 -4
-4 -4 -4 -4 -4 -4 -5 -5 -4 -3 -2 -1 -1 -1 -1 -0 -0 -0 0 0 0 0 -0 -0 -0 -0 -1 -1 -1 -1 -1 -1 -1 -1 -1 -2 -2 -2 -3 -4 -4 -4 -4
-4 -5 -5 -4 -5 -5 -4 -3 -2 -2 -2 -1 -1 -1 -0 -0 -0 0 0 0 0 0 0 0 -0 -0 -0 -0 -0 -1 -1 -1 -1 -1 -2 -2 -2 -2 -3 -4 -4 -4 -5
-5 -4 -4 -5 -4 -2 -2 -3 -2 -2 -1 -1 -1 -0 -0 -0 -0 0 0 0 0 0 0 0 0 -0 -0 -0 -1 -1 -1 -1 -1 -2 -2 -2 -2 -3 -3 -4 -4 -4 -5
-4 -4 -4 -5 -5 -3 -4 -3 -2 -2 -1 -1 -1 -0 -0 -0 -0 0 0 0 0 0 0 0 0 -0 -0 -0 -1 -1 -1 -1 -1 -2 -2 -2 -3 -3 -3 -4 -4 -5 -5
-4 -4 -4 -4 -4 -4 -3 -3 -2 -1 -1 -1 -1 -0 -0 -0 0 0 0 0 0 0 0 0 -0 -0 -0 -1 -1 -1 -1 -2 -2 -2 -2 -2 -3 -3 -3 -4 -5 -5 -5
-4 -4 -5 -4 -5 -5 -4 -3 -2 -1 -1 -1 -1 -0 -0 0 0 0 0 0 0 0 -0 -0 -0 -0 -1 -1 -1 -1 -2 -2 -2 -2 -2 -3 -3 -3 -4 -4 -5 -5 -5
-5 -4 -5 -5 -4 -5 -5 -3 -2 -1 -1 -1 -1 -1 -0 -0 -0 -0 -0 -0 0 0 -0 -0 -0 -1 -1 -1 -1 -2 -2 -2 -2 -3 -3 -3 -3 -4 -4 -5 -5 -5 -6
Height
3112 3107 3101 3096 3091 3086 3081 3077 3076 3077 3079 3080 3079 3079 3079 3080 3080 3081 3081 3080 3079 3081 3083 3083 3084 3083 3082 3081 3080 3078 3075 3073 3071 3069 3066 3064 3062 3058 3056 3054 3052 3050 3050
3110 3106 3101 3094 3090 3085 3080 3074 3073 3074 3077 3078 3078 3078 3078 3078 3079 3081 3081 3081 3081 3082 3082 3083 3082 3082 3080 3079 3077 3076 3074 3071 3069 3068 3065 3063 3060 3057 3055 3053 3052 3052 3050
3111 3106 3100 3094 3089 3085 3080 3075 3074 3075 3076 3077 3078 3077 3078 3078 3078 3079 3080 3080 3081 3081 3081 3081 3081 3080 3079 3078 3076 3075 3073 3071 3069 3066 3064 3061 3057 3056 3055 3054 3054 3054 3052
3112 3108 3102 3096 3091 3088 3083 3079 3077 3077 3077 3077 3077 3077 3077 3077 3078 3078 3079 3079 3079 3079 3079 3079 3079 3078 3077 3077 3076 3074 3073 3071 3069 3067 3064 3063 3060 3058 3057 3056 3056 3055 3053
3114 3110 3104 3099 3095 3090 3087 3084 3082 3080 3080 3079 3079 3078 3078 3078 3078 3078 3078 3078 3078 3078 3078 3078 3078 3078 3077 3076 3075 3074 3073 3071 3070 3069 3068 3067 3064 3062 3061 3059 3058 3057 3056
3117 3114 3109 3105 3100 3096 3092 3090 3087 3085 3083 3082 3080 3080 3079 3079 3079 3079 3078 3079 3079 3080 3080 3080 3079 3078 3078 3077 3076 3075 3074 3073 3072 3071 3070 3069 3067 3065 3063 3061 3059 3058 3057
3120 3117 3113 3110 3106 3103 3099 3096 3093 3091 3089 3087 3085 3084 3084 3083 3083 3082 3082 3082 3082 3082 3082 3081 3081 3080 3080 3080 3079 3078 3078 3076 3075 3074 3072 3070 3069 3066 3065 3063 3061 3060 3057
3123 3120 3117 3114 3111 3108 3105 3103 3101 3098 3096 3094 3092 3091 3089 3089 3088 3086 3085 3086 3086 3086 3085 3085 3084 3083 3084 3084 3083 3081 3081 3079 3077 3075 3074 3072 3069 3068 3066 3064 3062 3060 3058
3126 3124 3120 3119 3115 3113 3111 3109 3107 3105 3102 3100 3098 3095 3093 3092 3092 3091 3090 3090 3091 3091 3090 3090 3090 3088 3089 3088 3084 3086 3083 3082 3080 3079 3077 3076 3073 3071 3068 3066 3064 3062 3061
3129 3127 3125 3124 3123 3120 3117 3114 3113 3111 3109 3107 3105 3101 3099 3097 3096 3097 3096 3096 3096 3097 3095 3095 3094 3093 3092 3090 3089 3089 3088 3085 3083 3081 3080 3077 3076 3073 3071 3068 3065 3062 3061
3132 3131 3130 3129 3127 3125 3123 3121 3119 3117 3115 3113 3112 3110 3107 3105 3104 3103 3102 3101 3101 3102 3102 3100 3099 3098 3096 3095 3094 3092 3090 3087 3085 3083 3081 3080 3078 3074 3070 3068 3067 3065 3061
3136 3136 3135 3134 3133 3131 3129 3126 3124 3122 3121 3120 3118 3117 3114 3112 3109 3108 3107 3107 3106 3105 3106 3104 3103 3102 3100 3099 3097 3094 3091 3090 3087 3087 3085 3084 3082 3078 3075 3071 3068 3066 3064
3141 3140 3140 3139 3138 3135 3133 3131 3130 3128 3126 3124 3123 3120 3118 3116 3115 3113 3111 3110 3110 3109 3109 3109 3108 3106 3103 3101 3100 3097 3094 3093 3091 3090 3087 3084 3082 3080 3077 3072 3069 3066 3062
3145 3146 3144 3143 3141 3139 3138 3135 3133 3131 3128 3126 3125 3123 3121 3120 3118 3117 3116 3113 3112 3113 3112 3110 3110 3108 3107 3106 3104 3101 3097 3094 3092 3092 3090 3088 3085 3082 3077 3073 3069 3066 3064
3150 3150 3148 3147 3145 3142 3141 3138 3135 3133 3132 3130 3128 3126 3125 3123 3123 3121 3120 3118 3116 3115 3114 3116 3114 3111 3110 3107 3105 3102 3099 3096 3093 3091 3089 3086 3083 3081 3076 3073 3070 3065 3062
3152 3152 3151 3149 3147 3147 3143 3141 3139 3137 3135 3133 3132 3130 3129 3127 3126 3124 3123 3121 3120 3119 3117 3116 3114 3113 3111 3108 3105 3103 3100 3097 3094 3091 3088 3085 3082 3078 3074 3072 3068 3063 3059
3155 3155 3152 3152 3153 3150 3148 3146 3143 3142 3139 3137 3135 3134 3132 3130 3129 3128 3126 3124 3123 3121 3120 3118 3117 3114 3112 3110 3108 3105 3102 3099 3096 3093 3089 3085 3082 3078 3074 3071 3067 3062 3058
3156 3157 3155 3154 3154 3154 3155 3152 3149 3145 3142 3140 3138 3137 3135 3134 3132 3131 3129 3127 3125 3124 3122 3121 3119 3117 3115 3112 3110 3107 3104 3101 3097 3094 3090 3086 3082 3077 3074 3070 3066 3061 3056
3160 3159 3157 3156 3157 3156 3156 3153 3150 3147 3145 3143 3141 3139 3138 3136 3135 3133 3131 3129 3128 3126 3125 3123 3121 3119 3117 3114 3112 3109 3105 3102 3098 3094 3090 3086 3082 3078 3074 3069 3065 3060 3056
3160 3160 3159 3159 3162 3159 3157 3154 3152 3150 3147 3145 3144 3142 3140 3138 3137 3135 3133 3132 3130 3128 3127 3125 3123 3121 3119 3116 3113 3110 3106 3103 3099 3095 3091 3087 3083 3078 3074 3069 3064 3060 3055
3162 3161 3162 3164 3161 3158 3156 3154 3153 3151 3149 3147 3145 3143 3142 3140 3138 3137 3136 3134 3132 3130 3128 3127 3125 3122 3119 3117 3114 3110 3107 3103 3099 3095 3091 3087 3083 3078 3074 3069 3064 3060 3055
3164 3167 3165 3163 3160 3158 3156 3155 3153 3152 3150 3148 3146 3145 3143 3142 3140 3138 3137 3135 3134 3132 3129 3127 3125 3123 3120 3117 3114 3111 3107 3103 3099 3095 3091 3087 3083 3078 3074 3069 3064 3060 3055
3168 3168 3166 3164 3161 3158 3157 3156 3154 3152 3151 3149 3148 3146 3145 3143 3141 3140 3138 3136 3134 3132 3130 3128 3125 3123 3120 3117 3114 3110 3107 3103 3099 3095 3091 3087 3083 3078 3073 3068 3064 3059 3054
3164 3167 3166 3164 3161 3160 3158 3156 3154 3153 3151 3150 3148 3147 3145 3144 3142 3140 3139 3137 3135 3133 3130 3128 3125 3123 3120 3117 3113 3109 3106 3102 3098 3094 3090 3086 3082 3078 3073 3068 3063 3058 3054
3164 3165 3164 3165 3163 3160 3158 3156 3154 3153 3151 3150 3149 3147 3145 3144 3142 3140 3138 3137 3134 3132 3130 3127 3125 3122 3119 3116 3112 3108 3105 3101 3097 3093 3089 3085 3081 3077 3072 3067 3062 3058 3053
3163 3162 3162 3161 3160 3160 3158 3155 3154 3153 3151 3149 3148 3147 3145 3143 3142 3140 3137 3135 3133 3131 3129 3126 3124 3121 3117 3114 3111 3107 3104 3100 3096 3092 3088 3084 3080 3076 3071 3066 3062 3057 3053
Wind_Speed
21 23 20 19 20 17 19 14 10 9 8 5 8 8 9 8 6 8 6 7 3 8 5 3 0 3 7 9 13 13 14 17 16 15 13 11 13 10 10 9 6 6 5
20 16 18 19 19 17 19 11 4 6 10 4 5 5 7 4 4 3 3 7 8 7 4 1 5 7 9 13 13 11 14 16 15 10 10 12 13 12 12 8 5 5 6
16 17 25 21 18 18 19 15 8 5 3 3 1 5 3 3 1 2 1 3 4 1 1 3 6 9 11 9 8 10 12 11 8 13 9 13 11 6 6 3 5 7 11
18 22 25 23 17 18 20 20 14 10 7 3 2 3 1 2 0 2 4 6 8 6 5 6 9 10 7 7 9 10 8 8 7 11 14 14 15 12 10 11 11 9 11
20 18 24 24 24 21 17 16 18 14 11 10 8 7 4 3 2 3 6 4 2 0 1 5 5 6 6 6 6 7 5 8 8 14 15 14 16 14 15 16 15 14 16
18 21 23 28 30 26 23 21 20 17 15 13 11 10 10 10 8 8 8 6 7 8 7 6 5 6 6 6 6 6 6 8 10 11 11 9 10 8 11 13 13 13 13
16 17 25 24 21 22 21 22 21 23 23 21 22 19 16 16 16 15 15 15 14 12 10 8 6 6 11 10 15 15 12 11 11 9 9 7 8 10 11 12 13 15 17
17 17 21 18 18 19 18 21 21 22 22 23 20 18 18 16 16 18 15 15 15 13 12 15 18 19 16 14 14 17 15 14 14 13 11 13 12 10 8 8 13 15 15
14 15 18 20 21 19 18 18 21 23 22 22 23 20 14 13 15 16 20 20 19 22 20 20 17 19 17 15 21 16 16 13 18 20 22 21 20 17 14 11 13 9 9
13 16 20 16 24 27 25 21 25 27 30 30 32 25 23 21 18 18 20 25 19 21 20 19 18 17 16 16 15 13 14 18 16 14 21 16 17 17 16 12 11 13 9
16 17 21 24 21 18 20 20 23 23 22 22 22 25 21 23 22 22 17 14 20 17 12 16 15 14 15 15 15 18 15 17 17 16 13 15 17 16 19 23 14 12 13
18 20 20 18 20 19 17 16 18 21 20 21 21 19 19 18 19 20 19 17 16 14 11 14 14 13 13 14 13 12 12 12 18 20 15 10 12 13 14 16 13 13 14
19 20 19 19 16 14 14 15 14 15 14 12 16 13 10 13 18 19 15 16 12 13 13 13 14 14 14 17 15 14 16 15 11 10 12 18 19 18 18 22 16 16 21
15 16 18 13 12 12 10 13 13 14 11 8 8 11 10 12 11 9 7 10 14 11 12 17 17 16 17 14 13 13 12 14 15 11 10 13 12 15 15 18 16 14 12
17 15 12 14 14 15 15 13 13 12 11 11 13 14 13 12 11 9 9 10 12 11 13 9 8 9 9 10 11 12 13 13 12 13 13 12 12 11 17 15 16 16 10
10 13 15 12 14 16 14 14 14 13 12 12 12 12 12 12 11 10 11 11 11 10 11 8 9 10 10 11 12 13 14 14 14 14 14 14 14 14 16 15 15 17 15
10 9 10 9 9 15 19 17 13 11 13 13 13 12 12 11 10 10 10 10 10 10 10 10 10 11 11 12 13 14 14 15 16 15 15 16 16 16 16 16 17 19 18
5 6 8 10 12 10 9 8 7 10 12 11 10 10 9 9 9 8 9 9 11 11 10 11 11 11 12 13 14 14 15 16 17 16 17 18 18 18 18 18 18 20 19
4 3 4 13 13 8 6 7 7 8 8 9 9 8 8 8 9 9 10 11 11 11 11 11 11 12 12 13 14 14 16 17 18 18 18 19 20 20 20 20 19 20 19
5 9 11 15 6 4 5 5 6 7 8 7 7 7 7 7 9 9 9 9 10 10 10 11 11 11 12 13 14 15 16 17 18 18 18 19 21 22 22 22 21 19 20
7 13 12 8 5 4 4 6 6 6 6 6 6 6 6 5 7 8 7 7 8 9 9 10 10 11 12 13 14 16 17 17 18 18 18 18 21 23 23 23 21 20 20
9 7 4 4 4 5 5 6 6 5 5 4 5 5 5 5 7 7 6 6 7 7 8 9 10 11 12 14 15 16 16 17 18 18 19 19 21 23 23 23 21 20 20
3 3 5 6 5 8 7 6 6 5 5 4 4 3 3 4 5 5 5 6 6 7 8 9 11 12 13 14 15 16 17 18 18 19 20 20 21 23 24 23 22 21 21
6 3 3 7 6 2 5 5 6 4 4 4 2 2 2 2 3 3 4 5 6 8 9 11 12 13 15 16 16 17 18 18 19 20 21 21 21 22 23 23 22 22 22
10 7 4 3 6 5 6 6 7 5 4 4 4 3 3 3 4 4 5 6 8 9 11 12 14 15 16 16 17 18 18 18 19 20 20 21 21 22 24 23 21 21 22
6 11 5 6 4 8 6 6 7 7 7 6 6 6 6 6 7 7 7 8 9 10 12 14 15 16 17 17 18 18 18 18 19 20 21 21 21 22 23 22 21 21 22
Wind_Direction
326 331 339 334 336 333 329 323 299 238 245 298 301 292 291 291 298 336 343 28 134 147 128 92 61 316 321 323 324 324 314 314 312 304 304 307 324 340 336 329 342 3 350
347 359 357 338 346 348 349 354 343 200 209 227 260 300 305 286 265 307 357 56 91 99 123 32 356 316 319 314 324 326 321 313 315 306 314 325 330 336 343 356 14 343 27
2 7 8 10 16 12 13 28 47 122 186 240 301 300 289 355 180 138 108 84 75 56 234 257 281 311 315 314 313 314 311 324 335 328 322 334 341 336 351 25 35 11 10
23 17 18 24 24 21 34 43 56 64 74 55 8 350 350 22 69 252 280 301 308 292 261 278 303 316 321 308 299 301 308 327 8 35 32 28 33 43 49 50 40 25 1
26 27 34 37 39 38 42 42 55 58 60 60 59 57 40 24 320 289 280 283 300 28 244 314 344 352 342 341 336 329 11 29 53 47 30 15 30 37 39 45 50 36 31
44 41 41 41 43 47 51 50 59 53 59 59 65 64 67 72 73 77 80 85 87 80 69 51 44 40 30 30 12 32 51 60 47 43 34 25 24 23 35 48 42 41 21
37 45 36 31 35 38 47 52 66 66 63 66 69 69 71 74 73 75 78 79 81 81 76 61 48 68 63 69 69 65 51 46 52 56 38 34 37 71 71 59 44 38 22
46 44 45 42 37 44 56 68 68 66 69 70 67 68 79 76 80 70 83 85 81 73 73 77 80 80 78 71 65 57 51 53 53 54 48 51 58 58 64 56 52 32 20
53 55 49 42 51 52 66 65 68 63 60 63 57 56 68 74 80 75 80 76 78 83 79 76 71 75 73 61 56 50 37 46 52 51 43 36 40 41 46 47 46 34 27
64 60 58 46 56 57 62 73 69 65 66 61 48 49 68 71 80 77 83 88 80 78 71 69 65 74 75 70 72 70 68 64 62 32 15 34 20 13 18 27 26 18 4
75 76 75 68 61 53 45 54 60 56 46 45 47 52 64 73 76 76 67 80 90 64 58 62 69 71 70 67 69 65 54 34 28 44 34 19 358 9 4 359 6 357 7
86 77 74 61 63 64 58 59 63 59 54 61 61 55 50 69 77 75 70 74 73 87 81 71 65 58 55 52 52 45 38 39 43 11 24 24 0 4 345 353 8 7 14
87 74 72 71 66 54 51 60 66 77 70 61 48 55 45 82 72 59 71 77 77 76 75 58 45 42 42 34 27 31 33 23 40 17 352 358 24 1 358 341 9 354 357
83 79 74 66 57 42 37 38 45 57 90 73 75 78 67 80 88 93 73 69 84 80 63 42 25 26 24 22 15 17 13 21 31 20 18 5 355 347 344 339 358 354 8
83 80 69 47 32 38 36 33 39 44 57 62 60 65 66 68 68 76 71 71 69 66 68 34 29 31 29 25 23 18 15 17 19 14 6 7 357 4 336 355 349 343 351
83 69 53 59 30 21 30 44 43 47 55 61 59 58 60 63 64 64 64 63 60 52 60 41 39 38 35 31 29 25 23 22 20 23 14 10 5 6 356 351 346 343 347
88 68 53 35 49 24 41 21 15 46 53 56 56 55 56 58 61 64 67 65 66 63 55 51 49 46 42 38 35 32 30 29 27 26 20 15 11 7 359 355 348 349 354
66 63 62 27 49 40 33 20 21 26 27 47 51 54 59 63 67 69 72 75 68 62 59 56 54 50 44 40 37 35 31 30 26 23 19 16 12 9 1 358 352 355 0
89 13 92 56 41 36 35 19 22 27 32 33 38 47 53 63 71 72 72 67 66 63 60 57 53 46 41 36 32 29 27 25 21 18 16 14 11 8 4 1 358 359 1
329 59 62 64 22 8 12 20 20 19 21 28 37 47 55 64 69 68 67 67 65 60 54 47 42 36 31 26 22 20 19 18 16 12 11 12 10 7 5 3 1 360 357
47 52 40 29 338 8 6 19 18 20 16 21 42 49 52 57 69 67 64 61 57 52 44 36 29 25 21 18 14 12 11 11 10 6 3 6 8 5 6 3 360 358 356
69 23 328 337 351 4 12 14 5 12 9 13 35 52 47 61 69 67 60 54 48 41 36 29 22 17 14 10 8 7 5 5 3 360 0 2 3 2 3 2 359 358 358
32 355 344 339 350 3 8 358 355 2 358 5 23 29 38 49 58 57 47 39 31 23 19 15 9 5 2 1 360 360 360 358 357 356 358 358 358 359 0 360 359 359 358
145 283 338 330 342 359 334 348 347 355 348 341 340 350 15 13 22 27 19 9 2 358 357 355 353 352 351 351 352 353 354 353 352 353 355 356 356 357 358 358 358 359 359
295 276 219 303 313 320 330 336 327 329 330 324 315 308 305 302 305 316 327 333 335 337 338 340 341 343 344 345 346 347 348 348 349 352 354 353 355 356 356 357 358 359 359
269 256 270 249 187 305 310 313 316 319 320 317 312 311 310 307 308 313 321 326 328 330 332 335 338 340 341 343 343 343 344 346 347 349 351 352 354 355 355 356 358 360 359